| time (UTC) | temp C | wind direction | speed KPH | gust KPH | rain 1hr cm | rain 24hr cm | rain mn cm | humidity % | barometer mb |
| 20260504212508 | 18 | 182 | 9.7 | 20.9 | 0.00 | 0.00 | 0.00 | 41 | 1008.7 |
| 20260504212010 | 19 | 215 | 9.7 | 19.3 | 0.00 | 0.00 | 0.00 | 40 | 1008.7 |
| 20260504211511 | 19 | 144 | 4.8 | 25.7 | 0.00 | 0.00 | 0.00 | 41 | 1008.8 |
| 20260504211003 | 19 | 187 | 3.2 | 25.7 | 0.00 | 0.00 | 0.00 | 39 | 1008.8 |
| 20260504210506 | 20 | 184 | 8.0 | 20.9 | 0.00 | 0.00 | 0.00 | 40 | 1008.7 |
| 20260504210016 | 20 | 314 | 11.3 | 22.5 | 0.00 | 0.00 | 0.00 | 38 | 1008.7 |
| 20260504205509 | 20 | 171 | 8.0 | 22.5 | 0.00 | 0.00 | 0.00 | 37 | 1008.7 |
| 20260504205010 | 20 | 141 | 8.0 | 22.5 | 0.00 | 0.00 | 0.00 | 37 | 1008.7 |
| 20260504204529 | 19 | 147 | 3.2 | 29.0 | 0.00 | 0.00 | 0.00 | 37 | 1008.8 |
| 20260504204009 | 20 | 209 | 6.4 | 29.0 | 0.00 | 0.00 | 0.00 | 37 | 1008.7 |
| 20260504203507 | 20 | 193 | 4.8 | 20.9 | 0.00 | 0.00 | 0.00 | 38 | 1008.6 |
| 20260504203025 | 20 | 126 | 8.0 | 20.9 | 0.00 | 0.00 | 0.00 | 38 | 1008.7 |
| 20260504202511 | 20 | 170 | 8.0 | 27.4 | 0.00 | 0.00 | 0.00 | 36 | 1008.7 |
| 20260504202011 | 20 | 179 | 14.5 | 27.4 | 0.00 | 0.00 | 0.00 | 35 | 1008.7 |
| 20260504201526 | 20 | 202 | 4.8 | 30.6 | 0.00 | 0.00 | 0.00 | 36 | 1008.6 |
| 20260504201011 | 20 | 248 | 4.8 | 30.6 | 0.00 | 0.00 | 0.00 | 37 | 1008.7 |
| 20260504200509 | 20 | 207 | 11.3 | 27.4 | 0.00 | 0.00 | 0.00 | 37 | 1008.7 |
| 20260504200021 | 20 | 161 | 9.7 | 27.4 | 0.00 | 0.00 | 0.00 | 35 | 1008.8 |
| 20260504195507 | 20 | 186 | 6.4 | 22.5 | 0.00 | 0.00 | 0.00 | 34 | 1008.6 |
| 20260504195003 | 20 | 309 | 1.6 | 27.4 | 0.00 | 0.00 | 0.00 | 37 | 1008.6 |
| 20260504194517 | 20 | 178 | 9.7 | 27.4 | 0.00 | 0.00 | 0.00 | 36 | 1008.5 |
| 20260504194009 | 20 | 178 | 0.0 | 20.9 | 0.00 | 0.00 | 0.00 | 34 | 1008.7 |
| 20260504193509 | 20 | 311 | 3.2 | 20.9 | 0.00 | 0.00 | 0.00 | 34 | 1008.6 |
| 20260504193023 | 20 | 224 | 0.0 | 19.3 | 0.00 | 0.00 | 0.00 | 35 | 1008.7 |
| 20260504192509 | 20 | 262 | 0.0 | 24.1 | 0.00 | 0.00 | 0.00 | 35 | 1008.6 |
| 20260504192009 | 20 | 297 | 8.0 | 24.1 | 0.00 | 0.00 | 0.00 | 33 | 1008.8 |
| 20260504191546 | 20 | 186 | 1.6 | 16.1 | 0.00 | 0.00 | 0.00 | 33 | 1008.7 |
| 20260504191010 | 20 | 266 | 0.0 | 22.5 | 0.00 | 0.00 | 0.00 | 35 | 1008.8 |
| 20260504190507 | 20 | 136 | 6.4 | 22.5 | 0.00 | 0.00 | 0.00 | 32 | 1008.8 |
| 20260504190026 | 20 | 257 | 6.4 | 22.5 | 0.00 | 0.00 | 0.00 | 34 | 1008.8 |
| 20260504185506 | 20 | 240 | 0.0 | 30.6 | 0.00 | 0.00 | 0.00 | 33 | 1008.8 |
| 20260504185009 | 20 | 165 | 9.7 | 30.6 | 0.00 | 0.00 | 0.00 | 34 | 1008.9 |
| 20260504184515 | 20 | 213 | 1.6 | 33.8 | 0.00 | 0.00 | 0.00 | 32 | 1008.9 |
| 20260504184015 | 20 | 208 | 4.8 | 33.8 | 0.00 | 0.00 | 0.00 | 35 | 1009.0 |
| 20260504183507 | 20 | 198 | 3.2 | 17.7 | 0.00 | 0.00 | 0.00 | 35 | 1008.9 |
| 20260504183035 | 20 | 201 | 1.6 | 30.6 | 0.00 | 0.00 | 0.00 | 34 | 1009.0 |
| 20260504182509 | 19 | 197 | 6.4 | 35.4 | 0.00 | 0.00 | 0.00 | 33 | 1009.0 |
| 20260504182006 | 19 | 162 | 6.4 | 35.4 | 0.00 | 0.00 | 0.00 | 33 | 1009.1 |
| 20260504181505 | 19 | 142 | 3.2 | 25.7 | 0.00 | 0.00 | 0.00 | 33 | 1009.2 |
| 20260504181003 | 19 | 295 | 8.0 | 30.6 | 0.00 | 0.00 | 0.00 | 31 | 1009.2 |
| 20260504180509 | 19 | 175 | 9.7 | 30.6 | 0.00 | 0.00 | 0.00 | 33 | 1009.3 |
| 20260504180005 | 19 | 265 | 12.9 | 30.6 | 0.00 | 0.00 | 0.00 | 31 | 1009.5 |
| 20260504175502 | 19 | 179 | 6.4 | 25.7 | 0.00 | 0.00 | 0.00 | 34 | 1009.4 |
| 20260504175002 | 19 | 289 | 1.6 | 27.4 | 0.00 | 0.00 | 0.00 | 33 | 1009.3 |
| 20260504174507 | 18 | 225 | 8.0 | 27.4 | 0.00 | 0.00 | 0.00 | 32 | 1009.5 |
| 20260504174003 | 19 | 187 | 9.7 | 25.7 | 0.00 | 0.00 | 0.00 | 30 | 1009.7 |
| 20260504173503 | 19 | 129 | 9.7 | 25.7 | 0.00 | 0.00 | 0.00 | 30 | 1009.6 |
| 20260504173007 | 19 | 247 | 0.0 | 25.7 | 0.00 | 0.00 | 0.00 | 33 | 1009.7 |
| 20260504172504 | 18 | 101 | 11.3 | 32.2 | 0.00 | 0.00 | 0.00 | 31 | 1009.7 |
| 20260504172004 | 18 | 324 | 6.4 | 32.2 | 0.00 | 0.00 | 0.00 | 34 | 1009.7 |
| 20260504171508 | 18 | 219 | 9.7 | 27.4 | 0.00 | 0.00 | 0.00 | 31 | 1009.8 |
| 20260504171005 | 18 | 37 | 4.8 | 29.0 | 0.00 | 0.00 | 0.00 | 30 | 1009.8 |
| 20260504170503 | 18 | 234 | 9.7 | 29.0 | 0.00 | 0.00 | 0.00 | 32 | 1009.9 |
| 20260504151003 | 17 | 263 | 6.4 | 20.9 | 0.00 | 0.00 | 0.00 | 36 | 1010.9 |
| 20260504150506 | 17 | 137 | 6.4 | 22.5 | 0.00 | 0.00 | 0.00 | 38 | 1010.8 |
| 20260504141006 | 16 | 264 | 8.0 | 27.4 | 0.00 | 0.00 | 0.00 | 39 | 1011.5 |
| 20260504140504 | 15 | 107 | 4.8 | 29.0 | 0.00 | 0.00 | 0.00 | 41 | 1011.6 |
| 20260504130504 | 14 | 274 | 6.4 | 20.9 | 0.00 | 0.00 | 0.00 | 44 | 1012.0 |
| 20260504110506 | 0 | 250 | 0.0 | 0.0 | 0.00 | 0.00 | 0.00 | 85 | 1012.3 |
| 20260504100507 | 0 | 250 | 0.0 | 0.0 | 0.00 | 0.00 | 0.00 | 84 | 1012.0 |
| 20260504082006 | 1 | 250 | 0.0 | 0.0 | 0.00 | 0.00 | 0.00 | 81 | 1011.5 |
| 20260504081518 | 1 | 250 | 0.0 | 0.0 | 0.00 | 0.00 | 0.00 | 81 | 1011.5 |
| 20260504081009 | 1 | 250 | 0.0 | 0.0 | 0.00 | 0.00 | 0.00 | 80 | 1011.5 |
| 20260504080508 | 1 | 250 | 0.0 | 0.0 | 0.00 | 0.00 | 0.00 | 81 | 1011.5 |
| 20260504050504 | 0 | 250 | 0.0 | 0.0 | 0.00 | 0.00 | 0.00 | 81 | 1011.6 |
| 20260504050010 | 0 | 250 | 0.0 | 0.0 | 0.00 | 0.00 | 0.00 | 81 | 1011.6 |
| 20260504045503 | 0 | 250 | 0.0 | 0.0 | 0.00 | 0.00 | 0.00 | 80 | 1011.6 |
| 20260504045003 | 0 | 250 | 0.0 | 0.0 | 0.00 | 0.00 | 0.00 | 80 | 1011.7 |
| 20260504044522 | 0 | 250 | 0.0 | 0.0 | 0.00 | 0.00 | 0.00 | 80 | 1011.8 |
| 20260504044009 | 0 | 250 | 0.0 | 0.0 | 0.00 | 0.00 | 0.00 | 79 | 1011.7 |
| 20260504043506 | 0 | 250 | 0.0 | 0.0 | 0.00 | 0.00 | 0.00 | 79 | 1011.8 |
| 20260504043026 | 0 | 250 | 0.0 | 0.0 | 0.00 | 0.00 | 0.00 | 79 | 1011.8 |
| 20260504042509 | 0 | 250 | 0.0 | 0.0 | 0.00 | 0.00 | 0.00 | 79 | 1011.8 |
| 20260504042007 | 0 | 250 | 0.0 | 0.0 | 0.00 | 0.00 | 0.00 | 79 | 1011.7 |
| 20260504041525 | 0 | 250 | 0.0 | 0.0 | 0.00 | 0.00 | 0.00 | 79 | 1011.6 |
| 20260504041008 | 0 | 250 | 0.0 | 0.0 | 0.00 | 0.00 | 0.00 | 79 | 1011.7 |
| 20260504040507 | 0 | 250 | 0.0 | 0.0 | 0.00 | 0.00 | 0.00 | 78 | 1011.5 |
| 20260504040027 | 0 | 250 | 0.0 | 0.0 | 0.00 | 0.00 | 0.00 | 78 | 1011.5 |
| 20260504035510 | 0 | 250 | 0.0 | 0.0 | 0.00 | 0.00 | 0.00 | 78 | 1011.5 |
| 20260504035004 | 0 | 250 | 0.0 | 0.0 | 0.00 | 0.00 | 0.00 | 78 | 1011.4 |
| 20260504034511 | 0 | 250 | 0.0 | 0.0 | 0.00 | 0.00 | 0.00 | 78 | 1011.4 |
| 20260504034003 | 1 | 250 | 0.0 | 0.0 | 0.00 | 0.00 | 0.00 | 78 | 1011.3 |
| 20260504033503 | 1 | 250 | 0.0 | 0.0 | 0.00 | 0.00 | 0.00 | 77 | 1011.3 |
| 20260504033018 | 1 | 250 | 0.0 | 0.0 | 0.00 | 0.00 | 0.00 | 78 | 1011.3 |
| 20260504032507 | 1 | 250 | 0.0 | 0.0 | 0.00 | 0.00 | 0.00 | 78 | 1011.3 |
| 20260504032011 | 1 | 250 | 0.0 | 0.0 | 0.00 | 0.00 | 0.00 | 77 | 1011.3 |
| 20260504031522 | 1 | 250 | 0.0 | 0.0 | 0.00 | 0.00 | 0.00 | 78 | 1011.3 |
| 20260504031006 | 1 | 250 | 0.0 | 0.0 | 0.00 | 0.00 | 0.00 | 78 | 1011.3 |
| 20260504030507 | 1 | 250 | 0.0 | 0.0 | 0.00 | 0.00 | 0.00 | 77 | 1011.2 |
| 20260504030040 | 1 | 250 | 0.0 | 0.0 | 0.00 | 0.00 | 0.00 | 77 | 1011.2 |
| 20260504025512 | 1 | 250 | 0.0 | 0.0 | 0.00 | 0.00 | 0.00 | 77 | 1011.1 |
| 20260504025010 | 1 | 250 | 0.0 | 0.0 | 0.00 | 0.00 | 0.00 | 76 | 1011.0 |
| 20260504024528 | 1 | 250 | 0.0 | 0.0 | 0.00 | 0.00 | 0.00 | 76 | 1011.0 |
| 20260504024012 | 1 | 250 | 0.0 | 0.0 | 0.00 | 0.00 | 0.00 | 76 | 1011.0 |
| 20260504023509 | 1 | 250 | 0.0 | 0.0 | 0.00 | 0.00 | 0.00 | 75 | 1011.0 |
| 20260504023014 | 1 | 250 | 0.0 | 0.0 | 0.00 | 0.00 | 0.00 | 75 | 1011.0 |
| 20260504022509 | 1 | 250 | 0.0 | 0.0 | 0.00 | 0.00 | 0.00 | 74 | 1011.0 |
| 20260504022008 | 1 | 250 | 0.0 | 0.0 | 0.00 | 0.00 | 0.00 | 74 | 1010.9 |
| 20260504021520 | 1 | 250 | 0.0 | 0.0 | 0.00 | 0.00 | 0.00 | 74 | 1010.9 |
| 20260504021006 | 1 | 250 | 0.0 | 0.0 | 0.00 | 0.00 | 0.00 | 72 | 1010.9 |
| 20260504020508 | 1 | 250 | 0.0 | 0.0 | 0.00 | 0.00 | 0.00 | 73 | 1010.9 |
| 20260504020023 | 2 | 250 | 0.0 | 0.0 | 0.00 | 0.00 | 0.00 | 72 | 1010.9 |
| 20260504015506 | 2 | 250 | 0.0 | 0.0 | 0.00 | 0.00 | 0.00 | 72 | 1010.8 |
| 20260504015006 | 2 | 250 | 0.0 | 0.0 | 0.00 | 0.00 | 0.00 | 71 | 1010.9 |
| 20260504014517 | 2 | 250 | 0.0 | 0.0 | 0.00 | 0.00 | 0.00 | 70 | 1010.8 |
| 20260504014005 | 2 | 250 | 0.0 | 0.0 | 0.00 | 0.00 | 0.00 | 70 | 1010.8 |
| 20260504013503 | 2 | 250 | 0.0 | 0.0 | 0.00 | 0.00 | 0.00 | 69 | 1010.8 |
| 20260504013010 | 2 | 250 | 0.0 | 0.0 | 0.00 | 0.00 | 0.00 | 69 | 1010.7 |
| 20260504012503 | 2 | 250 | 0.0 | 0.0 | 0.00 | 0.00 | 0.00 | 68 | 1010.7 |
| 20260504012006 | 2 | 250 | 0.0 | 0.0 | 0.00 | 0.00 | 0.00 | 68 | 1010.7 |
| 20260504011516 | 3 | 250 | 0.0 | 0.0 | 0.00 | 0.00 | 0.00 | 67 | 1010.6 |
| 20260504011006 | 3 | 250 | 0.0 | 0.0 | 0.00 | 0.00 | 0.00 | 67 | 1010.5 |
| 20260504010506 | 3 | 250 | 0.0 | 0.0 | 0.00 | 0.00 | 0.00 | 65 | 1010.4 |
| 20260504010023 | 3 | 250 | 0.0 | 0.0 | 0.00 | 0.00 | 0.00 | 65 | 1010.3 |
| 20260504005507 | 3 | 250 | 0.0 | 0.0 | 0.00 | 0.00 | 0.00 | 64 | 1010.2 |
| 20260504005008 | 3 | 250 | 0.0 | 0.0 | 0.00 | 0.00 | 0.00 | 64 | 1010.2 |
| 20260504004529 | 4 | 250 | 0.0 | 0.0 | 0.00 | 0.00 | 0.00 | 61 | 1010.1 |
| 20260504004010 | 4 | 250 | 0.0 | 0.0 | 0.00 | 0.00 | 0.00 | 61 | 1010.0 |
| 20260504003508 | 4 | 250 | 0.0 | 0.0 | 0.00 | 0.00 | 0.00 | 60 | 1009.9 |
| 20260504003031 | 5 | 250 | 0.0 | 0.0 | 0.00 | 0.00 | 0.00 | 60 | 1009.8 |
| 20260504002505 | 5 | 250 | 0.0 | 0.0 | 0.00 | 0.00 | 0.00 | 60 | 1009.8 |
| 20260504002003 | 5 | 250 | 0.0 | 0.0 | 0.00 | 0.00 | 0.00 | 57 | 1009.6 |
| 20260504001512 | 6 | 250 | 0.0 | 0.0 | 0.00 | 0.00 | 0.00 | 56 | 1009.5 |
| 20260504001003 | 6 | 250 | 0.0 | 0.0 | 0.00 | 0.00 | 0.00 | 57 | 1009.5 |
| 20260504000504 | 6 | 250 | 0.0 | 0.0 | 0.00 | 0.00 | 0.00 | 55 | 1009.5 |
| 20260504000019 | 7 | 250 | 0.0 | 0.0 | 0.00 | 0.00 | 0.00 | 52 | 1009.4 |
| 20260503235507 | 7 | 250 | 0.0 | 0.0 | 0.00 | 0.00 | 0.00 | 51 | 1009.4 |
| 20260503235010 | 8 | 250 | 0.0 | 0.0 | 0.00 | 0.00 | 0.00 | 49 | 1009.4 |
| 20260503234535 | 8 | 250 | 0.0 | 0.0 | 0.00 | 0.00 | 0.00 | 47 | 1009.4 |
| 20260503234011 | 9 | 250 | 0.0 | 0.0 | 0.00 | 0.00 | 0.00 | 46 | 1009.3 |
| 20260503233509 | 9 | 250 | 0.0 | 0.0 | 0.00 | 0.00 | 0.00 | 41 | 1009.3 |
| 20260503233024 | 10 | 250 | 0.0 | 6.4 | 0.00 | 0.00 | 0.00 | 41 | 1009.3 |
| 20260503232507 | 10 | 250 | 1.6 | 6.4 | 0.00 | 0.00 | 0.00 | 40 | 1009.2 |
| 20260503232010 | 10 | 256 | 0.0 | 6.4 | 0.00 | 0.00 | 0.00 | 40 | 1009.2 |
| 20260503231527 | 10 | 317 | 0.0 | 8.0 | 0.00 | 0.00 | 0.00 | 40 | 1009.2 |
| 20260503231009 | 10 | 328 | 0.0 | 8.0 | 0.00 | 0.00 | 0.00 | 39 | 1009.2 |
| 20260503230504 | 10 | 309 | 0.0 | 12.9 | 0.00 | 0.00 | 0.00 | 39 | 1009.2 |
| 20260503230028 | 10 | 351 | 1.6 | 16.1 | 0.00 | 0.00 | 0.00 | 39 | 1009.2 |
| 20260503225509 | 10 | 329 | 4.8 | 16.1 | 0.00 | 0.00 | 0.00 | 38 | 1009.1 |
| 20260503225005 | 10 | 293 | 6.4 | 16.1 | 0.00 | 0.00 | 0.00 | 38 | 1009.1 |
| 20260503224528 | 10 | 350 | 1.6 | 16.1 | 0.00 | 0.00 | 0.00 | 38 | 1009.0 |
| 20260503224009 | 11 | 297 | 3.2 | 16.1 | 0.00 | 0.00 | 0.00 | 38 | 1009.0 |
| 20260503223507 | 11 | 311 | 0.0 | 22.5 | 0.00 | 0.00 | 0.00 | 38 | 1008.9 |
| 20260503223024 | 10 | 335 | 3.2 | 22.5 | 0.00 | 0.00 | 0.00 | 38 | 1009.0 |
| 20260503222508 | 11 | 325 | 8.0 | 20.9 | 0.00 | 0.00 | 0.00 | 38 | 1008.9 |
| 20260503222007 | 11 | 20 | 6.4 | 20.9 | 0.00 | 0.00 | 0.00 | 39 | 1009.0 |
| 20260503221526 | 11 | 347 | 1.6 | 32.2 | 0.00 | 0.00 | 0.00 | 39 | 1008.9 |
| 20260503221009 | 10 | 351 | 12.9 | 32.2 | 0.00 | 0.00 | 0.00 | 37 | 1008.8 |
| 20260503220514 | 10 | 342 | 9.7 | 25.7 | 0.00 | 0.00 | 0.00 | 38 | 1009.0 |
| 20260503220029 | 10 | 339 | 8.0 | 25.7 | 0.00 | 0.00 | 0.00 | 39 | 1008.9 |
| 20260503215511 | 10 | 207 | 6.4 | 22.5 | 0.00 | 0.00 | 0.00 | 39 | 1008.9 |
| 20260503215006 | 10 | 310 | 4.8 | 22.5 | 0.00 | 0.00 | 0.00 | 39 | 1008.9 |
| 20260503214516 | 11 | 349 | 12.9 | 22.5 | 0.00 | 0.00 | 0.00 | 38 | 1009.0 |
| 20260503214004 | 11 | 19 | 9.7 | 25.7 | 0.00 | 0.00 | 0.00 | 39 | 1008.8 |
| 20260503213508 | 11 | 5 | 8.0 | 30.6 | 0.00 | 0.00 | 0.00 | 40 | 1008.7 |
| 20260503213031 | 10 | 317 | 17.7 | 30.6 | 0.00 | 0.00 | 0.00 | 39 | 1008.7 |